sat.trackr.live / text

‹ back to catalog

UNKNOWN

NORAD 87129

UNKNOWN UNKNOWN UNKNOWN

§ Identity

Operator
Country
Launch date
Launch site
Launch vehicle
Mass (kg)
RCS (m²)

External: N2YO · Heavens-Above

§ Orbital elements

Epoch: 2026-05-19T05:04:46.305120Z

Period
115.86 min
Inclination
102.2580°
Eccentricity
0.0036768
Mean motion
12.42889301 rev/d
Perigee alt
1,465.4 km
Apogee alt
1,523.3 km
Semi-major
7,872.5 km
B*
1.1009e-3
RAAN
237.0287°
Arg perigee
153.3129°
Mean anomaly
206.9837°
Rev number
56,623

§ Raw data

UNKNOWN1 87129U          26139.21164705  .00000107  00000+0  11009-2 0  99942 87129 102.2580 237.0287 0036768 153.3129 206.9837 12.42889301566235

JSON: /api/v1/satellites/87129 · /tle

For live sub-satellite position, see the globe view (requires WebGL).

§ Visibility from observer

Set your observer location to see the next 7 days of passes ≥ 10°. The values pass through the URL so the page stays shareable.

No JS? Fill the form by hand. The geolocation button needs JavaScript.